Regional Weather Roundup
Issued by NWS

Home | Current Version | Previous Version | Graphics & Text | Print | Product List | Glossary On
Versions: 1 2 3 4 5 6 7 8 9 10 11 12 13 14 15 16 17 18 19 20 21 22 23 24 25 26 27 28 29 30 31 32 33 34 35 36 37 38 39 40 41 42 43 44 45 46 47 48 49 50
000
ASUS45 KBOI 251410
RWRID
WEATHER ROUNDUP FOR IDAHO
NATIONAL WEATHER SERVICE BOISE ID
700 AM MST THU DEC 25 2014

NOTE: "FAIR" INDICATES FEW OR NO CLOUDS BELOW 12000 FEET
WITH NO SIGNIFICANT WEATHER AND/OR OBSTRUCTIONS TO VISIBILITY

IDZ012-014-251500-
SOUTHWEST IDAHO


CITY           SKY/WX    TMP DP  RH WIND       PRES   REMARKS
BOISE          PTCLDY    29  23  78 NW10      29.80R WCI  20
CALDWELL       PTCLDY    34  19  55 SW22G28   29.87R WCI  22
MOUNTAIN HOME  CLOUDY    30  23  75 NW33G39   29.73R WCI  14
$$

IDZ016-017-251500-
SOUTHCENTRAL IDAHO


CITY           SKY/WX    TMP DP  RH WIND       PRES   REMARKS
JEROME         CLOUDY    26  23  88 W28G35    29.60R WCI  10
TWIN FALLS     SNOW      28  23  81 W36G47    29.62R VSB 1/2 WCI  11
$$

IDZ019>023-251500-
SOUTHEAST IDAHO


CITY           SKY/WX    TMP DP  RH WIND       PRES   REMARKS
IDAHO FALLS    LGT SNOW  30  27  88 N20       29.46R FOG     WCI  17
POCATELLO      LGT SNOW  27  27 100 SW20      29.53R VSB 1   WCI  13
REXBURG        LGT SNOW  27  27 100 N3        29.47R FOG
$$

IDZ006-010-011-018-031-032-251500-
CENTRAL IDAHO MOUNTAINS


CITY           SKY/WX    TMP DP  RH WIND       PRES   REMARKS
MCCALL         LGT SNOW  24  21  88 NW10      29.76R VSB 1   WCI  14
HAILEY         CLOUDY    30  18  59 MISG      29.52R
STANLEY          N/A     23  14  68 NW9       29.63R WCI  13
SALMON         CLOUDY    30  19  64 N13       29.69R WCI  20
CHALLIS        CLOUDY    28  19  69 N15       29.63R WCI  16
$$

IDZ002-004-006-007-026-251500-
NORTHERN IDAHO


CITY           SKY/WX    TMP DP  RH WIND       PRES   REMARKS
LEWISTON       CLEAR     35  26  69 NW3       29.97R
LOWELL           N/A     36  33  89 CALM      29.95R
COEUR D`ALENE  CLOUDY    28  27  93 W3        29.91R VSB<1/4
MULLAN PASS    HAZE      23  18  81 CALM      29.75R VSB 1/4
$$


USA.gov is the U.S. government's official web portal to all federal, state and local government web resources and services.